AFR603 SBBE-SOCA

Flight info

Callsign AFR603
Flight time 1h 20m
Altitude 36000
Route ILMAN UZ81 BEL UA555 ALDIX ALDIX1S
Aircraft A320/M-SDE2E3FGIJ1RWY/HB1

Departure

Time 2026-05-04 18:14
Airport Val de Cans/Júlio Cezar Ribeiro International Airport (SBBE)

Arrival

Time 2026-05-04 19:34
Airport Cayenne – Félix Eboué Airport (SOCA)
Time Latitude Longitude Altitude Speed Heading
2026-05-04 17:39 -1.38992 -48.47903 57 ft 0 kts 278°
2026-05-04 17:56 -1.38992 -48.47902 56 ft 1 kts 278°
2026-05-04 17:56 -1.38995 -48.47878 57 ft 4 kts 278°
2026-05-04 17:57 -1.38999 -48.47856 50 ft 4 kts 266°
2026-05-04 17:57 -1.38990 -48.47833 52 ft 4 kts 231°
2026-05-04 17:57 -1.38979 -48.47821 49 ft 1 kts 229°
2026-05-04 17:57 -1.38978 -48.47819 49 ft 0 kts 229°
2026-05-04 18:02 -1.38981 -48.47821 57 ft 2 kts 217°
2026-05-04 18:02 -1.39011 -48.47814 57 ft 6 kts 142°
2026-05-04 18:02 -1.39020 -48.47793 55 ft 0 kts 104°
2026-05-04 18:05 -1.39021 -48.47755 58 ft 11 kts 82°
2026-05-04 18:05 -1.38943 -48.47708 53 ft 18 kts 10°
2026-05-04 18:06 -1.38638 -48.47680 55 ft 23 kts
2026-05-04 18:06 -1.38476 -48.47664 54 ft 24 kts
2026-05-04 18:06 -1.38305 -48.47652 52 ft 25 kts
2026-05-04 18:07 -1.38140 -48.47638 51 ft 22 kts
2026-05-04 18:07 -1.37980 -48.47625 47 ft 23 kts
2026-05-04 18:07 -1.37848 -48.47538 48 ft 23 kts 45°
2026-05-04 18:07 -1.37736 -48.47426 49 ft 23 kts 44°
2026-05-04 18:08 -1.37624 -48.47314 51 ft 22 kts 45°
2026-05-04 18:08 -1.37518 -48.47205 53 ft 22 kts 45°
2026-05-04 18:08 -1.37411 -48.47099 52 ft 21 kts 45°
2026-05-04 18:08 -1.37307 -48.46997 54 ft 19 kts 43°
2026-05-04 18:09 -1.37211 -48.46941 55 ft 0 kts 29°
2026-05-04 18:13 -1.37207 -48.46934 55 ft 6 kts 55°
2026-05-04 18:13 -1.37230 -48.46918 55 ft 7 kts 217°
2026-05-04 18:13 -1.37483 -48.47173 54 ft 87 kts 225°
2026-05-04 18:14 -1.38074 -48.47764 52 ft 150 kts 225°
2026-05-04 18:14 -1.38863 -48.48540 492 ft 164 kts 225°
2026-05-04 18:14 -1.39705 -48.49393 908 ft 186 kts 226°
2026-05-04 18:15 -1.41746 -48.51492 1686 ft 235 kts 225°
2026-05-04 18:15 -1.44223 -48.54039 3004 ft 268 kts 224°
2026-05-04 18:15 -1.45532 -48.55382 3944 ft 272 kts 224°
2026-05-04 18:16 -1.46865 -48.56750 4863 ft 277 kts 224°
2026-05-04 18:16 -1.48219 -48.58141 5749 ft 282 kts 224°
2026-05-04 18:16 -1.49602 -48.59561 6624 ft 287 kts 224°
2026-05-04 18:17 -1.52436 -48.62473 8281 ft 297 kts 224°
2026-05-04 18:17 -1.53889 -48.63967 9117 ft 302 kts 224°
2026-05-04 18:17 -1.56905 -48.67062 10310 ft 329 kts 224°
2026-05-04 18:18 -1.58550 -48.68744 10711 ft 345 kts 224°
2026-05-04 18:18 -1.60244 -48.70482 11362 ft 352 kts 224°
2026-05-04 18:18 -1.61964 -48.72251 12073 ft 357 kts 224°
2026-05-04 18:18 -1.63707 -48.74043 12803 ft 361 kts 224°
2026-05-04 18:19 -1.66527 -48.78223 14238 ft 374 kts 253°
2026-05-04 18:19 -1.66837 -48.80802 14912 ft 376 kts 274°
2026-05-04 18:19 -1.66250 -48.83339 15551 ft 377 kts 295°
2026-05-04 18:20 -1.65020 -48.85651 16200 ft 378 kts 301°
2026-05-04 18:20 -1.63725 -48.87945 16834 ft 381 kts 301°
2026-05-04 18:20 -1.62432 -48.90222 17451 ft 383 kts 301°
2026-05-04 18:20 -1.61110 -48.92553 18077 ft 386 kts 301°
2026-05-04 18:21 -1.59787 -48.94901 18606 ft 390 kts 300°
2026-05-04 18:21 -1.58455 -48.97275 19114 ft 393 kts 300°
2026-05-04 18:21 -1.57098 -48.99699 19621 ft 397 kts 300°
2026-05-04 18:21 -1.55744 -49.02115 20121 ft 400 kts 300°
2026-05-04 18:22 -1.54396 -49.04521 20616 ft 403 kts 300°
2026-05-04 18:22 -1.52975 -49.06948 21103 ft 407 kts 306°
2026-05-04 18:22 -1.50993 -49.08958 21580 ft 409 kts 326°
2026-05-04 18:22 -1.48439 -49.10197 22059 ft 410 kts 346°
2026-05-04 18:23 -1.45613 -49.10500 22522 ft 411 kts
2026-05-04 18:23 -1.42847 -49.09837 22977 ft 411 kts 26°
2026-05-04 18:23 -1.40462 -49.08293 23429 ft 410 kts 45°
2026-05-04 18:23 -1.38738 -49.06042 23792 ft 410 kts 65°
2026-05-04 18:24 -1.37865 -49.03347 24171 ft 409 kts 84°
2026-05-04 18:24 -1.37932 -49.00522 24544 ft 409 kts 103°
2026-05-04 18:24 -1.38939 -48.97871 24915 ft 410 kts 122°
2026-05-04 18:24 -1.40677 -48.95606 25289 ft 413 kts 130°
2026-05-04 18:25 -1.42437 -48.93338 25652 ft 415 kts 122°
2026-05-04 18:25 -1.43747 -48.90757 26024 ft 419 kts 111°
2026-05-04 18:25 -1.44480 -48.87934 26375 ft 423 kts 98°
2026-05-04 18:25 -1.44572 -48.84991 26720 ft 427 kts 86°
2026-05-04 18:26 -1.44123 -48.82048 27061 ft 430 kts 81°
2026-05-04 18:26 -1.43615 -48.79095 27401 ft 432 kts 81°
2026-05-04 18:26 -1.43115 -48.76124 27749 ft 434 kts 82°
2026-05-04 18:26 -1.42619 -48.73138 28086 ft 437 kts 82°
2026-05-04 18:27 -1.42128 -48.70138 28411 ft 439 kts 82°
2026-05-04 18:27 -1.41636 -48.67117 28739 ft 441 kts 82°
2026-05-04 18:27 -1.41060 -48.64098 29067 ft 445 kts 75°
2026-05-04 18:27 -1.39845 -48.61252 29396 ft 449 kts 59°
2026-05-04 18:28 -1.37905 -48.58801 29694 ft 453 kts 44°
2026-05-04 18:28 -1.35356 -48.56936 29987 ft 457 kts 28°
2026-05-04 18:28 -1.32377 -48.55807 30226 ft 461 kts 13°
2026-05-04 18:28 -1.29185 -48.55510 30468 ft 464 kts 357°
2026-05-04 18:29 -1.26006 -48.56073 30712 ft 466 kts 341°
2026-05-04 18:29 -1.23083 -48.57471 30942 ft 467 kts 327°
2026-05-04 18:29 -1.20388 -48.59225 31200 ft 469 kts 327°
2026-05-04 18:29 -1.17627 -48.60977 31466 ft 471 kts 327°
2026-05-04 18:30 -1.12052 -48.64430 32057 ft 471 kts 328°
2026-05-04 18:30 -1.09265 -48.66150 32354 ft 471 kts 328°
2026-05-04 18:30 -1.06482 -48.67879 32715 ft 470 kts 327°
2026-05-04 18:31 -1.03713 -48.69610 33069 ft 469 kts 327°
2026-05-04 18:31 -1.00962 -48.71339 33456 ft 467 kts 327°
2026-05-04 18:31 -0.98215 -48.73069 33833 ft 465 kts 327°
2026-05-04 18:31 -0.95479 -48.74792 34165 ft 464 kts 326°
2026-05-04 18:32 -0.92749 -48.76506 34471 ft 463 kts 327°
2026-05-04 18:32 -0.90022 -48.78214 34781 ft 462 kts 327°
2026-05-04 18:32 -0.87305 -48.79918 35097 ft 460 kts 327°
2026-05-04 18:32 -0.84599 -48.81618 35398 ft 459 kts 326°
2026-05-04 18:33 -0.81900 -48.83313 35693 ft 458 kts 326°
2026-05-04 18:33 -0.79204 -48.85004 35869 ft 458 kts 326°
2026-05-04 18:33 -0.76525 -48.86682 35910 ft 452 kts 327°
2026-05-04 18:34 -0.71221 -48.89997 35913 ft 448 kts 327°
2026-05-04 18:34 -0.65945 -48.93306 35916 ft 448 kts 326°
2026-05-04 18:35 -0.60674 -48.96614 35909 ft 447 kts 327°
2026-05-04 18:35 -0.55403 -48.99920 35912 ft 447 kts 326°
2026-05-04 18:36 -0.50167 -49.03202 35913 ft 447 kts 326°
2026-05-04 18:36 -0.44898 -49.06507 35909 ft 447 kts 327°
2026-05-04 18:37 -0.39621 -49.09811 35908 ft 448 kts 327°
2026-05-04 18:37 -0.34342 -49.13123 35912 ft 448 kts 327°
2026-05-04 18:38 -0.29057 -49.16441 35906 ft 449 kts 327°
2026-05-04 18:38 -0.23769 -49.19754 35910 ft 449 kts 327°
2026-05-04 18:39 -0.18475 -49.23068 35914 ft 449 kts 326°
2026-05-04 18:39 -0.13182 -49.26386 35914 ft 449 kts 327°
2026-05-04 18:40 -0.07887 -49.29705 35918 ft 449 kts 326°
2026-05-04 18:40 -0.02587 -49.33024 35916 ft 450 kts 327°
2026-05-04 18:41 0.02710 -49.36348 35919 ft 449 kts 327°
2026-05-04 18:41 0.08001 -49.39673 35922 ft 449 kts 327°
2026-05-04 18:42 0.13298 -49.42991 35921 ft 449 kts 327°
2026-05-04 18:42 0.18596 -49.46300 35928 ft 449 kts 327°
2026-05-04 18:43 0.23888 -49.49608 35924 ft 449 kts 327°
2026-05-04 18:43 0.29186 -49.52930 35933 ft 449 kts 327°
2026-05-04 18:44 0.34476 -49.56257 35918 ft 450 kts 327°
2026-05-04 18:44 0.39743 -49.59566 35922 ft 450 kts 327°
2026-05-04 18:45 0.45083 -49.62918 35919 ft 450 kts 327°
2026-05-04 18:45 0.50358 -49.66222 35920 ft 451 kts 327°
2026-05-04 18:46 0.55709 -49.69569 35929 ft 451 kts 328°
2026-05-04 18:46 0.60987 -49.72877 35928 ft 451 kts 327°
2026-05-04 18:47 0.66295 -49.76210 35930 ft 451 kts 327°
2026-05-04 18:47 0.71608 -49.79538 35927 ft 451 kts 327°
2026-05-04 18:48 0.76922 -49.82861 35926 ft 451 kts 327°
2026-05-04 18:48 0.82232 -49.86194 35929 ft 451 kts 327°
2026-05-04 18:49 0.87545 -49.89528 35925 ft 451 kts 327°
2026-05-04 18:49 0.92863 -49.92861 35927 ft 451 kts 327°
2026-05-04 18:50 0.98179 -49.96196 35927 ft 451 kts 327°
2026-05-04 18:50 1.03496 -49.99534 35933 ft 451 kts 327°
2026-05-04 18:51 1.08819 -50.02869 35926 ft 452 kts 327°
2026-05-04 18:51 1.14148 -50.06207 35927 ft 452 kts 327°
2026-05-04 18:52 1.19471 -50.09541 35923 ft 452 kts 327°
2026-05-04 18:52 1.24797 -50.12883 35930 ft 452 kts 327°
2026-05-04 18:53 1.30109 -50.16228 35931 ft 451 kts 327°
2026-05-04 18:53 1.35432 -50.19564 35933 ft 451 kts 327°
2026-05-04 18:54 1.40711 -50.22877 35931 ft 451 kts 327°
2026-05-04 18:54 1.46023 -50.26207 35937 ft 450 kts 327°
2026-05-04 18:55 1.51339 -50.29535 35937 ft 451 kts 327°
2026-05-04 18:55 1.59319 -50.34542 35929 ft 451 kts 327°
2026-05-04 18:56 1.64632 -50.37879 35919 ft 451 kts 327°
2026-05-04 18:56 1.69944 -50.41220 35925 ft 451 kts 327°
2026-05-04 18:57 1.75264 -50.44552 35931 ft 451 kts 327°
2026-05-04 18:57 1.80586 -50.47889 35933 ft 451 kts 327°
2026-05-04 18:58 1.85897 -50.51230 35940 ft 451 kts 327°
2026-05-04 18:58 1.91206 -50.54564 35935 ft 451 kts 327°
2026-05-04 18:59 1.96526 -50.57888 35934 ft 451 kts 327°
2026-05-04 18:59 2.01834 -50.61216 35936 ft 450 kts 327°
2026-05-04 19:00 2.07134 -50.64556 35941 ft 451 kts 327°
2026-05-04 19:00 2.12400 -50.67872 35953 ft 450 kts 326°
2026-05-04 19:01 2.17701 -50.71190 35951 ft 449 kts 326°
2026-05-04 19:01 2.22966 -50.74547 35942 ft 449 kts 326°
2026-05-04 19:02 2.28195 -50.77956 35945 ft 448 kts 326°
2026-05-04 19:02 2.33421 -50.81354 35940 ft 448 kts 326°
2026-05-04 19:03 2.37772 -50.84172 35944 ft 448 kts 326°
2026-05-04 19:03 2.43012 -50.87544 35948 ft 448 kts 326°
2026-05-04 19:04 2.48245 -50.90912 35945 ft 447 kts 326°
2026-05-04 19:04 2.53473 -50.94292 35942 ft 447 kts 326°
2026-05-04 19:05 2.58696 -50.97675 35934 ft 447 kts 326°
2026-05-04 19:05 2.63928 -51.01053 35943 ft 447 kts 326°
2026-05-04 19:06 2.69159 -51.04431 35940 ft 447 kts 326°
2026-05-04 19:06 2.74387 -51.07806 35936 ft 447 kts 326°
2026-05-04 19:07 2.79616 -51.11182 35942 ft 447 kts 326°
2026-05-04 19:07 2.84840 -51.14566 35936 ft 447 kts 326°
2026-05-04 19:08 2.90069 -51.17937 35941 ft 447 kts 326°
2026-05-04 19:08 2.95299 -51.21314 35943 ft 447 kts 326°
2026-05-04 19:09 3.00531 -51.24689 35931 ft 448 kts 326°
2026-05-04 19:09 3.05766 -51.28076 35928 ft 449 kts 326°
2026-05-04 19:10 3.11012 -51.31465 35924 ft 449 kts 326°
2026-05-04 19:10 3.16230 -51.34841 35928 ft 450 kts 326°
2026-05-04 19:11 3.21522 -51.38264 35926 ft 450 kts 326°
2026-05-04 19:11 3.26776 -51.41665 35925 ft 450 kts 326°
2026-05-04 19:12 3.34649 -51.46751 35949 ft 447 kts 326°
2026-05-04 19:12 3.37262 -51.48438 35785 ft 446 kts 326°
2026-05-04 19:13 3.39859 -51.50123 35190 ft 444 kts 326°
2026-05-04 19:13 3.42445 -51.51804 34649 ft 442 kts 326°
2026-05-04 19:13 3.45025 -51.53478 34086 ft 441 kts 326°
2026-05-04 19:13 3.47566 -51.55119 33485 ft 440 kts 327°
2026-05-04 19:14 3.50161 -51.56797 32932 ft 437 kts 327°
2026-05-04 19:14 3.52710 -51.58449 32384 ft 436 kts 327°
2026-05-04 19:14 3.55220 -51.60074 31835 ft 434 kts 327°
2026-05-04 19:14 3.57786 -51.61733 31287 ft 433 kts 327°
2026-05-04 19:15 3.60280 -51.63346 30768 ft 432 kts 327°
2026-05-04 19:15 3.62801 -51.64975 30233 ft 431 kts 327°
2026-05-04 19:15 3.65319 -51.66604 29673 ft 430 kts 327°
2026-05-04 19:15 3.67822 -51.68224 29158 ft 427 kts 327°
2026-05-04 19:16 3.70309 -51.69832 28663 ft 424 kts 327°
2026-05-04 19:16 3.72772 -51.71425 28175 ft 420 kts 327°
2026-05-04 19:16 3.75216 -51.73011 27688 ft 417 kts 327°
2026-05-04 19:16 3.77643 -51.74587 27209 ft 414 kts 327°
2026-05-04 19:17 3.80058 -51.76153 26728 ft 412 kts 327°
2026-05-04 19:17 3.82456 -51.77705 26247 ft 410 kts 327°
2026-05-04 19:17 3.84844 -51.79252 25762 ft 408 kts 327°
2026-05-04 19:17 3.87228 -51.80778 25251 ft 407 kts 329°
2026-05-04 19:18 3.89640 -51.82248 24741 ft 405 kts 330°
2026-05-04 19:18 3.92069 -51.83677 24212 ft 404 kts 330°
2026-05-04 19:18 3.94500 -51.85089 23681 ft 404 kts 331°
2026-05-04 19:18 3.96925 -51.86497 23077 ft 403 kts 331°
2026-05-04 19:19 3.99341 -51.87905 22593 ft 399 kts 331°
2026-05-04 19:19 4.01733 -51.89307 22068 ft 397 kts 330°
2026-05-04 19:19 4.04103 -51.90706 21499 ft 396 kts 331°
2026-05-04 19:19 4.06459 -51.92104 21065 ft 391 kts 331°
2026-05-04 19:20 4.08801 -51.93496 20567 ft 389 kts 330°
2026-05-04 19:20 4.11122 -51.94875 20020 ft 389 kts 331°
2026-05-04 19:20 4.13435 -51.96248 19557 ft 385 kts 331°
2026-05-04 19:20 4.15737 -51.97612 19155 ft 382 kts 331°
2026-05-04 19:21 4.18016 -51.98962 18702 ft 378 kts 332°
2026-05-04 19:21 4.20258 -52.00290 17953 ft 372 kts 332°
2026-05-04 19:21 4.22440 -52.01587 17488 ft 357 kts 331°
2026-05-04 19:21 4.24374 -52.03074 17049 ft 346 kts 318°
2026-05-04 19:22 4.25953 -52.04844 16619 ft 336 kts 312°
2026-05-04 19:22 4.27438 -52.06603 16209 ft 325 kts 312°
2026-05-04 19:22 4.28897 -52.08325 15808 ft 324 kts 313°
2026-05-04 19:22 4.30356 -52.10044 15409 ft 323 kts 313°
2026-05-04 19:23 4.31809 -52.11756 15011 ft 323 kts 313°
2026-05-04 19:23 4.33269 -52.13476 14609 ft 326 kts 313°
2026-05-04 19:23 4.34743 -52.15214 14208 ft 328 kts 313°
2026-05-04 19:23 4.36229 -52.16963 13799 ft 331 kts 313°
2026-05-04 19:24 4.37727 -52.18728 13338 ft 333 kts 313°
2026-05-04 19:24 4.39229 -52.20502 12915 ft 334 kts 312°
2026-05-04 19:24 4.40727 -52.22273 12488 ft 334 kts 312°
2026-05-04 19:24 4.42209 -52.24024 12070 ft 334 kts 312°
2026-05-04 19:25 4.43711 -52.25797 11628 ft 334 kts 311°
2026-05-04 19:25 4.45210 -52.27567 11284 ft 330 kts 311°
2026-05-04 19:25 4.46675 -52.29300 11040 ft 323 kts 311°
2026-05-04 19:25 4.48124 -52.31013 10676 ft 321 kts 311°
2026-05-04 19:26 4.49567 -52.32717 10317 ft 319 kts 311°
2026-05-04 19:26 4.50994 -52.34404 9971 ft 316 kts 311°
2026-05-04 19:26 4.52411 -52.36080 9586 ft 314 kts 311°
2026-05-04 19:26 4.53819 -52.37743 9215 ft 312 kts 311°
2026-05-04 19:27 4.55216 -52.39389 8843 ft 309 kts 311°
2026-05-04 19:27 4.56603 -52.41023 8449 ft 306 kts 311°
2026-05-04 19:27 4.57980 -52.42645 8048 ft 305 kts 311°
2026-05-04 19:27 4.59344 -52.44256 7617 ft 302 kts 311°
2026-05-04 19:28 4.60698 -52.45855 7222 ft 300 kts 311°
2026-05-04 19:28 4.62040 -52.47440 6932 ft 293 kts 311°
2026-05-04 19:28 4.63325 -52.48960 6812 ft 280 kts 311°
2026-05-04 19:28 4.64556 -52.50417 6691 ft 268 kts 312°
2026-05-04 19:29 4.65874 -52.51684 6424 ft 260 kts 327°
2026-05-04 19:29 4.67468 -52.52538 5873 ft 264 kts 337°
2026-05-04 19:29 4.69173 -52.53317 5181 ft 275 kts 338°
2026-05-04 19:29 4.70950 -52.54101 4462 ft 284 kts 343°
2026-05-04 19:30 4.72874 -52.54240 3901 ft 271 kts 17°
2026-05-04 19:30 4.74389 -52.53334 3491 ft 243 kts 51°
2026-05-04 19:30 4.75227 -52.51977 3155 ft 217 kts 65°
2026-05-04 19:30 4.75604 -52.50584 2773 ft 199 kts 81°
2026-05-04 19:31 4.75969 -52.49258 2498 ft 198 kts 66°
2026-05-04 19:31 4.76512 -52.48030 2246 ft 188 kts 65°
2026-05-04 19:31 4.77048 -52.46865 1995 ft 180 kts 64°
2026-05-04 19:31 4.77560 -52.45756 1792 ft 176 kts 64°
2026-05-04 19:32 4.78060 -52.44672 1566 ft 162 kts 64°
2026-05-04 19:32 4.78507 -52.43702 1342 ft 145 kts 63°
2026-05-04 19:32 4.78900 -52.42849 1179 ft 134 kts 64°
2026-05-04 19:32 4.79287 -52.42010 1008 ft 128 kts 64°
2026-05-04 19:33 4.79668 -52.41186 837 ft 128 kts 62°
2026-05-04 19:33 4.80045 -52.40368 681 ft 132 kts 64°
2026-05-04 19:33 4.80423 -52.39548 518 ft 129 kts 65°
2026-05-04 19:33 4.80809 -52.38711 358 ft 130 kts 67°
2026-05-04 19:34 4.81183 -52.37894 191 ft 128 kts 66°
2026-05-04 19:34 4.81555 -52.37084 46 ft 126 kts 64°
2026-05-04 19:34 4.81875 -52.36391 29 ft 87 kts 65°
2026-05-04 19:34 4.82057 -52.35995 29 ft 38 kts 65°
2026-05-04 19:35 4.82098 -52.35900 29 ft 1 kts 55°
2026-05-04 19:35 4.82105 -52.35906 29 ft 2 kts 309°
2026-05-04 19:35 4.82129 -52.35972 29 ft 13 kts 303°
2026-05-04 19:35 4.82164 -52.36024 29 ft 0 kts 304°
2026-05-04 19:39 4.82172 -52.36036 29 ft 6 kts 302°
2026-05-04 19:39 4.82188 -52.36092 29 ft 11 kts 266°
2026-05-04 19:40 4.82153 -52.36180 29 ft 15 kts 244°
2026-05-04 19:40 4.82104 -52.36269 29 ft 15 kts 244°
2026-05-04 19:40 4.82065 -52.36355 29 ft 8 kts 245°
2026-05-04 19:40 4.82063 -52.36399 29 ft 6 kts 323°
2026-05-04 19:41 4.82109 -52.36421 29 ft 9 kts 335°
2026-05-04 19:41 4.82116 -52.36424 29 ft 0 kts 338°